Flag for Brazil Weather past 2 weeks in Fortaleza, Ceará, Brazil

Now
77 °F

Clear.


Feels Like: 79 °F
Forecast: N/A
Wind: 6 mph from Northeast

Location: Fortaleza Aeropor-To

Current Time: Sep 1, 2014 at 7:14:31 PM

Latest Report: Sep 1, 2014 at 7:00 PM


Visibility: 10 mi

Pressure: 29.95 "Hg

Humidity: 69%

Dew point: 66 °F

Location of FortalezaLocation

Historic Weather in Fortaleza — Graph

°F

Fortaleza temperature yesterday

Maximum temperature yesterday: 86 °F (at 10:00 AM)
Minimum temperature yesterday: 75 °F (at 4:00 AM)
Average temperature yesterday: 80 °F

Past Weeks' High & Low Weather Summary

 TemperatureHumidityPressure
High88 °F (Aug 18, 11:00 AM)83% (Aug 21, 3:00 AM)30.15 "Hg (Aug 21, 3:00 AM)
Low73 °F (Aug 18, 6:00 AM)35% (Aug 31, 10:00 AM)29.83 "Hg (Aug 18, 3:00 PM)
Average80 °F63%29.94 "Hg
* Reported Aug 17 5:00 PM — Sep 1 5:00 PM, Fortaleza, Weather by CustomWeather, © 2014

Note: Actual official high and low records may vary slightly from our data, if they occured in-between our weather recording intervals... More about our weather records

Advertising

Fortaleza weather history for previous 24 hours

 ConditionsComfort  
Time TempWeatherWind HumidityBarometerVisibility
5:00 PM
Sep 1
81 °FSunny.12 mph58%29.92 "Hg10 mi
4:00 PM82 °FSunny.15 mph51%29.92 "Hg10 mi
3:00 PM82 °FSunny.17 mph55%29.92 "Hg10 mi
2:00 PM84 °FPassing clouds.18 mph51%29.95 "HgN/A
1:00 PM82 °FScattered clouds.20 mph55%29.98 "HgN/A
12:00 PM86 °FScattered clouds.17 mph46%30.01 "HgN/A
11:00 AM84 °FScattered clouds.20 mph48%30.01 "HgN/A
10:00 AM82 °FScattered clouds.13 mph51%30.04 "HgN/A
9:00 AM82 °FPartly sunny.18 mph51%30.04 "HgN/A
8:00 AM79 °FScattered clouds.14 mph61%30.04 "HgN/A
7:00 AM77 °FScattered clouds.8 mph65%30.01 "HgN/A
6:00 AM75 °FScattered clouds.6 mph69%29.98 "HgN/A
5:00 AM75 °FPassing clouds.9 mph69%30.15 "HgN/A
4:00 AM77 °FPassing clouds.13 mph65%29.98 "HgN/A
3:00 AM77 °FPassing clouds.13 mph65%29.98 "HgN/A
2:00 AM77 °FPassing clouds.14 mph65%30.12 "HgN/A
1:00 AM77 °FPassing clouds.12 mph65%29.98 "HgN/A
12:00 AM79 °FPassing clouds.13 mph61%29.98 "HgN/A
11:00 PM
Aug 31
77 °FPassing clouds.12 mph61%29.98 "HgN/A
10:00 PM79 °FPassing clouds.12 mph61%30.01 "HgN/A
9:00 PM79 °FClear.8 mph65%29.98 "Hg10 mi
8:00 PM79 °FClear.9 mph61%29.95 "Hg10 mi
7:00 PM79 °FClear.10 mph61%29.95 "Hg10 mi
Weather by CustomWeather, © 2014

See weather overviewHow to use our weather pages